This demonstration page uses our WeatherBlox Daily Observations layout. Learn more.

36.17497, -115.13722

Hourly Observations for April 19, 2018

Temp ( °F °C ) Dew Point ( °F °C ) Humidity (%) Winds ( mph kmh ) Pressure ( in mb ) Visibility ( mi km ) Precip ( " mm )
12:53 am 00:53 Clear 64 17.8 8 -13.3 11 11 SSE 5 7 29.8 1009 10 16.09344 0 0
1:53 am 01:53 Clear 63 17.2 11 -11.7 13 13 S 8 13 29.77 1008 10 16.09344 0 0
2:53 am 02:53 Clear 60 15.6 14 -10 16 16 S 6 9 29.77 1008 10 16.09344 0 0
3:53 am 03:53 Clear 62 16.7 23 -5 22 22 SSW 10 17 29.77 1008 10 16.09344 0 0
4:53 am 04:53 Clear 61 16.1 23 -5 23 23 SSW 15 24 29.74 1007 10 16.09344 0 0
5:53 am 05:53 Clear 59 15 24 -4.4 26 26 S 5 7 29.74 1007 10 16.09344 0 0
6:53 am 06:53 Sunny 59 15 21 -6.1 23 23 SW 6 9 29.77 1008 10 16.09344 0 0
7:53 am 07:53 Sunny 59 15 19 -7.2 21 21 S 10 17 29.77 1008 10 16.09344 0 0
8:53 am 08:53 Sunny 60 15.6 16 -8.9 18 18 S 16 26 29.77 1008 10 16.09344 0 0
9:53 am 09:53 Sunny 62 16.7 11 -11.7 13 13 WSW 17 28 29.74 1007 10 16.09344 0 0
10:53 am 10:53 Sunny 62 16.7 14 -10 15 15 SW 20 31 29.74 1007 10 16.09344 0 0
11:25 am 11:25 Sunny 63 17.2 16 -8.9 16 16 S 17 28 29.68 1005 10 16.09344 0 0
11:53 am 11:53 Sunny 65 18.3 16 -8.9 15 15 WSW 25 41 29.74 1007 10 16.09344 0 0
12:00 pm 12:00 Sunny 65 18.3 16 -8.9 15 15 SW 18 30 29.65 1004 10 16.09344 0 0
12:53 pm 12:53 Sunny 67 19.4 12 -11.1 12 12 W 9 15 29.68 1005 10 16.09344 0 0
1:53 pm 13:53 Partly Cloudy 67 19.4 17 -8.3 15 15 N 20 31 29.71 1006 10 16.09344 0 0
2:53 pm 14:53 Mostly Cloudy 63 17.2 24 -4.4 23 23 N 18 30 29.77 1008 10 16.09344 0 0
3:53 pm 15:53 Partly Cloudy 63 17.2 24 -4.4 23 23 N 14 22 29.77 1008 10 16.09344 0 0
4:53 pm 16:53 Partly Cloudy 63 17.2 25 -3.9 24 24 W 10 17 29.77 1008 10 16.09344 0.001 0.001
5:53 pm 17:53 Partly Cloudy 63 17.2 27 -2.8 26 26 NNW 22 35 29.77 1008 10 16.09344 0 0
6:53 pm 18:53 Mostly Cloudy 63 17.2 23 -5 22 22 NW 21 33 29.77 1008 10 16.09344 0 0
7:53 pm 19:53 Mostly Cloudy 57 13.9 33 0.6 41 41 NW 21 33 29.83 1010 10 16.09344 0 0
8:53 pm 20:53 Partly Cloudy 58 14.4 31 -0.6 36 36 NW 9 15 29.83 1010 10 16.09344 0 0
9:53 pm 21:53 Mostly Clear 57 13.9 33 0.6 41 41 NW 18 30 29.85 1011 10 16.09344 0 0
10:53 pm 22:53 Cloudy 56 13.3 36 2.2 47 47 NW 23 37 29.85 1011 10 16.09344 0 0
11:53 pm 23:53 Cloudy 55 12.8 36 2.2 49 49 NNW 16 26 29.88 1012 10 16.09344 0 0

Powered by AerisWeather